Location: Unspecified
(0.0000°N, 0.0000°E)
Time: 09:39:17
(UTC+01:00)

Milstar 3 - Visible Passes

Search period start: 19 January 2017 00:00
Search period end: 29 January 2017 00:00
Orbit: 1097 x 5148 km, 28.2° (Epoch: 10 January)

Date Brightness Start Highest point End Pass type
(mag) Time Alt. Az. Time Alt. Az. Time Alt. Az.
19 Jan 5.6 01:53:56 48° SSE 01:53:56 48° SSE 02:15:08 10° SE visible
19 Jan 6.3 04:27:28 14° WSW 04:46:35 35° S 05:15:26 10° SE visible
19 Jan 4.9 21:51:12 10° NW 21:52:40 17° NNW 21:52:40 17° NNW visible
20 Jan 5.9 00:55:42 33° SE 00:55:42 33° SE 01:07:44 10° SE visible
20 Jan 5.9 03:29:14 29° SW 03:38:32 38° S 04:06:53 10° SE visible
20 Jan 6.8 06:15:14 10° SW 06:42:36 36° S 07:08:51 10° ESE visible
20 Jan 4.3 20:50:59 10° NNW 20:55:08 22° NNE 20:55:08 22° NNE visible
20 Jan 6.4 23:57:27 16° ESE 23:57:27 16° ESE 00:00:52 10° ESE visible
21 Jan 5.7 02:30:59 42° SSW 02:31:57 42° SSW 02:58:27 10° SE visible
21 Jan 6.6 05:09:18 10° WSW 05:33:04 34° S 06:01:07 10° ESE visible
21 Jan 4.6 19:51:31 10° N 19:54:39 13° NNE 19:57:39 11° NE visible
21 Jan 5.3 22:30:48 10° NW 22:59:13 - ESE 22:31:16 12° NW visible
22 Jan 5.7 01:32:45 41° SSE 01:32:45 41° SSE 01:50:34 10° SE visible
22 Jan 6.3 04:06:16 14° WSW 04:24:03 34° S 04:52:12 10° ESE visible
22 Jan 4.1 21:30:08 10° NW 21:33:49 31° NNW 21:33:49 31° NNW visible
23 Jan 6.1 00:34:31 27° SE 00:34:31 27° SE 00:43:27 10° SE visible
23 Jan 5.9 03:08:02 28° SW 03:16:17 35° S 03:42:53 10° SE visible
23 Jan 6.7 05:52:58 10° SW 06:19:38 37° SSE 06:46:57 10° ESE visible
23 Jan 4.0 20:29:46 10° NNW 20:35:28 26° NNE 20:36:24 25° NE visible
23 Jan 5.7 23:36:17 11° SE 23:36:17 11° SE 23:37:05 10° SE visible
24 Jan 5.7 02:09:49 37° SSW 02:09:57 37° SSW 02:34:00 10° SE visible
24 Jan 6.5 04:47:46 10° SW 05:10:22 34° S 05:38:35 10° ESE visible
24 Jan 4.4 19:29:52 10° N 19:33:29 15° NNE 19:37:28 10° ENE visible
24 Jan 4.5 22:09:51 10° NW 22:12:40 28° NW 22:12:40 28° NW visible
25 Jan 5.8 01:11:36 34° SSE 01:11:36 34° SSE 01:26:06 10° SE visible
25 Jan 6.3 03:45:08 14° SW 04:01:42 32° S 04:28:52 10° ESE visible
25 Jan 6.8 06:35:52 10° SW 07:05:23 45° SSE 07:31:50 10° E visible
25 Jan 3.4 21:09:03 10° NW 21:15:20 49° NNE 21:15:20 49° NNE visible
26 Jan 6.2 00:13:23 21° SE 00:13:23 21° SE 00:19:20 10° SE visible
26 Jan 5.9 02:46:55 26° SW 02:54:14 32° S 03:18:49 10° SE visible
26 Jan 6.7 05:30:48 10° SW 05:56:34 39° SSE 06:24:50 10° E visible
26 Jan 3.8 20:08:28 10° NNW 20:14:13 29° NNE 20:18:04 20° ENE visible
26 Jan 5.1 22:50:11 10° WNW 23:15:11 - SE 22:51:42 18° WNW visible
27 Jan 5.8 01:48:43 33° S 01:48:43 33° S 02:09:36 10° SE visible
27 Jan 6.5 04:26:17 10° SW 04:47:42 34° SSE 05:15:53 10° ESE visible
27 Jan 3.4 21:48:57 10° WNW 21:54:28 62° WNW 21:54:28 62° WNW visible
28 Jan 5.9 00:50:33 28° SSE 00:50:33 28° SSE 01:01:47 10° SE visible
28 Jan 6.3 03:24:05 14° SW 03:39:28 31° S 04:05:27 10° ESE visible
28 Jan 6.8 06:13:07 10° SW 06:41:54 47° SSE 07:09:51 10° E visible
28 Jan 3.1 20:47:57 10° NW 20:54:33 57° NNE 20:57:16 41° E visible
